GW0143 Weather Reports


time (UTC)temp
C
wind
direction
speed
KPH
gust
KPH
rain 1hr
cm
rain 24hr
cm
rain mn
cm
humidity
%
barometer
mb
20260904225518 25 264 9.7 16.1 0.00 0.00 0.00 30 1024.9
20260904224521 25 209 4.8 8.0 0.00 0.00 0.00 28 1024.9
20260904223518 25 213 6.4 9.7 0.00 0.00 0.00 28 1025.0
20260904222544 24 280 6.4 14.5 0.00 0.00 0.00 30 1025.0
20260904221519 24 299 6.4 9.7 0.00 0.00 0.00 30 1025.1
20260904220519 24 285 8.0 14.5 0.00 0.00 0.00 30 1025.2
20260904215519 25 305 6.4 12.9 0.00 0.00 0.00 30 1025.3
20260904214519 25 294 9.7 17.7 0.00 0.00 0.00 30 1025.4
20260904213519 25 310 8.0 16.1 0.00 0.00 0.00 29 1025.3
20260904212520 26 286 16.1 25.7 0.00 0.00 0.00 27 1025.3
20260904211519 26 304 14.5 24.1 0.00 0.00 0.00 28 1025.3
20260904210520 25 305 8.0 17.7 0.00 0.00 0.00 27 1025.4
20260904205520 25 303 8.0 12.9 0.00 0.00 0.00 27 1025.4
20260904204520 25 274 8.0 16.1 0.00 0.00 0.00 27 1025.6
20260904203521 24 308 8.0 12.9 0.00 0.00 0.00 28 1025.7
20260904202517 24 287 8.0 16.1 0.00 0.00 0.00 28 1025.7
20260904201521 24 275 9.7 16.1 0.00 0.00 0.00 29 1025.8
20260904200521 24 291 9.7 16.1 0.00 0.00 0.00 28 1026.0
20260904195521 24 266 9.7 14.5 0.00 0.00 0.00 28 1026.0
20260904194521 25 251 8.0 14.5 0.00 0.00 0.00 27 1026.0
20260904193521 24 228 8.0 12.9 0.00 0.00 0.00 28 1026.1
20260904192519 24 256 9.7 16.1 0.00 0.00 0.00 29 1026.1
20260904191519 25 262 14.5 20.9 0.00 0.00 0.00 27 1026.2
20260904190519 25 235 11.3 24.1 0.00 0.00 0.00 28 1026.3
20260904185519 25 194 9.7 19.3 0.00 0.00 0.00 30 1026.5
20260904184519 25 245 11.3 24.1 0.00 0.00 0.00 28 1026.5
20260904183519 25 251 11.3 25.7 0.00 0.00 0.00 29 1026.5
20260904182517 24 170 6.4 12.9 0.00 0.00 0.00 31 1026.7
20260904181520 25 230 9.7 22.5 0.00 0.00 0.00 31 1026.7
20260904180520 24 238 11.3 24.1 0.00 0.00 0.00 31 1026.8
20260904175520 24 264 6.4 17.7 0.00 0.00 0.00 31 1026.9
20260904174523 23 311 8.0 14.5 0.00 0.00 0.00 32 1027.0
20260904173517 22 277 6.4 12.9 0.00 0.00 0.00 34 1026.9
20260904172518 22 275 9.7 16.1 0.00 0.00 0.00 34 1027.0
20260904171521 23 303 9.7 17.7 0.00 0.00 0.00 34 1026.9
20260904170518 23 268 11.3 24.1 0.00 0.00 0.00 33 1026.8
20260904165518 22 252 9.7 16.1 0.00 0.00 0.00 35 1026.8
20260904164518 22 254 4.8 14.5 0.00 0.00 0.00 36 1026.8
20260904163518 22 150 8.0 16.1 0.00 0.00 0.00 37 1026.8
20260904162519 22 191 14.5 20.9 0.00 0.00 0.00 37 1026.8
20260904161539 22 188 12.9 20.9 0.00 0.00 0.00 38 1026.7
20260904160519 21 172 8.0 17.7 0.00 0.00 0.00 38 1026.7
20260904155539 21 202 12.9 19.3 0.00 0.00 0.00 39 1026.8
20260904154519 21 195 9.7 14.5 0.00 0.00 0.00 40 1026.7
20260904153519 21 168 9.7 16.1 0.00 0.00 0.00 40 1026.7
20260904152520 20 170 14.5 17.7 0.00 0.00 0.00 42 1026.7
20260904151520 20 182 14.5 20.9 0.00 0.00 0.00 43 1026.6
20260904150520 20 180 14.5 19.3 0.00 0.00 0.00 44 1026.6
20260904145517 19 174 14.5 17.7 0.00 0.00 0.00 46 1026.6
20260904144517 19 178 14.5 19.3 0.00 0.00 0.00 46 1026.5
20260904143520 18 176 14.5 20.9 0.00 0.00 0.00 47 1026.5
20260904142521 18 183 16.1 20.9 0.00 0.00 0.00 48 1026.4
20260904141518 17 185 14.5 19.3 0.00 0.00 0.00 50 1026.3
20260904140519 17 189 14.5 22.5 0.00 0.00 0.00 51 1026.2
20260904135518 16 156 12.9 16.1 0.00 0.00 0.00 54 1026.2
20260904134521 16 153 12.9 14.5 0.00 0.00 0.00 55 1026.0
20260904133522 15 159 12.9 16.1 0.00 0.00 0.00 56 1026.0
20260904132542 14 160 11.3 14.5 0.00 0.00 0.00 59 1025.9
20260904131522 13 180 12.9 16.1 0.00 0.00 0.00 61 1025.8
20260904130522 12 183 11.3 16.1 0.00 0.00 0.00 63 1025.8
20260904125519 12 168 12.9 16.1 0.00 0.00 0.00 64 1025.6
20260904124522 12 166 11.3 16.1 0.00 0.00 0.00 63 1025.5
20260904123522 12 175 9.7 12.9 0.00 0.00 0.00 64 1025.4
20260904122520 12 163 12.9 17.7 0.00 0.00 0.00 63 1025.3
20260904121520 12 159 14.5 16.1 0.00 0.00 0.00 63 1025.2
20260904120523 12 156 12.9 16.1 0.00 0.00 0.00 61 1025.2
20260904115518 12 162 11.3 14.5 0.00 0.00 0.00 60 1025.1
20260904114538 13 193 11.3 14.5 0.00 0.00 0.00 59 1025.0
20260904113520 13 190 14.5 20.9 0.00 0.00 0.00 58 1025.1
20260904112521 13 190 14.5 20.9 0.00 0.00 0.00 56 1025.0
20260904111518 14 194 9.7 14.5 0.00 0.00 0.00 54 1025.0
20260904110538 15 191 12.9 19.3 0.00 0.00 0.00 50 1025.0
20260904105518 15 189 12.9 17.7 0.00 0.00 0.00 52 1025.0
20260904104518 15 190 11.3 19.3 0.00 0.00 0.00 52 1024.9
20260904103517 14 178 8.0 12.9 0.00 0.00 0.00 53 1024.9
20260904102517 14 152 9.7 12.9 0.00 0.00 0.00 52 1024.7
20260904101518 15 157 8.0 12.9 0.00 0.00 0.00 52 1024.6
20260904100518 15 203 9.7 14.5 0.00 0.00 0.00 46 1024.5
20260904095518 15 199 9.7 14.5 0.00 0.00 0.00 49 1024.4
20260904094518 15 188 11.3 16.1 0.00 0.00 0.00 50 1024.3
20260904093558 15 197 9.7 14.5 0.00 0.00 0.00 48 1024.2
20260904092517 15 180 12.9 17.7 0.00 0.00 0.00 47 1024.2
20260904091519 16 174 8.0 12.9 0.00 0.00 0.00 48 1024.2
20260904090519 16 164 9.7 14.5 0.00 0.00 0.00 44 1024.1
20260904085519 16 349 4.8 11.3 0.00 0.00 0.00 44 1024.3
20260904084519 16 209 9.7 12.9 0.00 0.00 0.00 42 1024.2
20260904083519 16 192 12.9 16.1 0.00 0.00 0.00 42 1024.3
20260904082519 17 203 8.0 12.9 0.00 0.00 0.00 41 1024.4
20260904081519 17 220 12.9 16.1 0.00 0.00 0.00 40 1024.3
20260904080518 17 216 12.9 17.7 0.00 0.00 0.00 41 1024.4
20260904075516 17 224 11.3 16.1 0.00 0.00 0.00 40 1024.6
20260904074516 17 215 9.7 14.5 0.00 0.00 0.00 40 1024.8
20260904073520 17 223 9.7 14.5 0.00 0.00 0.00 39 1024.8
20260904072601 17 216 8.0 12.9 0.00 0.00 0.00 40 1024.8
20260904071521 16 208 9.7 14.5 0.00 0.00 0.00 41 1024.8
20260904070517 15 195 8.0 12.9 0.00 0.00 0.00 44 1024.8
20260904065517 16 160 6.4 11.3 0.00 0.00 0.00 42 1024.8
20260904064517 15 159 6.4 12.9 0.00 0.00 0.00 44 1024.8
20260904063517 15 170 8.0 11.3 0.00 0.00 0.00 45 1024.8
20260904062522 -17 155 8.0 8.0 0.00 0.00 0.00
20260904061558 16 167 11.3 16.1 0.00 0.00 0.00 42 1024.7
20260904060518 16 152 12.9 16.1 0.00 0.00 0.00 41 1024.7
20260904055538 16 151 11.3 14.5 0.00 0.00 0.00 40 1024.7
20260904054538 17 152 11.3 17.7 0.00 0.00 0.00 38 1024.8
20260904053518 17 174 16.1 22.5 0.00 0.00 0.00 38 1024.8
20260904052516 16 157 11.3 16.1 0.00 0.00 0.00 38 1025.0
20260904051519 15 164 12.9 16.1 0.00 0.00 0.00 42 1025.0
20260904050519 16 162 4.8 11.3 0.00 0.00 0.00 41 1025.2
20260904045620 15 141 8.0 16.1 0.00 0.00 0.00 41 1025.1
20260904044524 16 110 4.8 8.0 0.00 0.00 0.00 42 1025.1
20260904043519 16 111 4.8 9.7 0.00 0.00 0.00 39 1025.1
20260904042539 16 26 4.8 8.0 0.00 0.00 0.00 38 1025.2
20260904041519 17 178 6.4 16.1 0.00 0.00 0.00 37 1025.1
20260904040520 17 218 8.0 11.3 0.00 0.00 0.00 38 1025.0
20260904035540 17 195 9.7 16.1 0.00 0.00 0.00 35 1025.0
20260904034517 17 198 12.9 19.3 0.00 0.00 0.00 40 1025.0
20260904033520 17 198 12.9 16.1 0.00 0.00 0.00 39 1024.9
20260904032517 17 185 12.9 22.5 0.00 0.00 0.00 39 1024.8
20260904031521 18 161 9.7 14.5 0.00 0.00 0.00 38 1024.8
20260904030521 17 171 11.3 12.9 0.00 0.00 0.00 37 1024.8
20260904025521 17 152 11.3 14.5 0.00 0.00 0.00 39 1024.8
20260904024521 18 151 9.7 16.1 0.00 0.00 0.00 36 1024.7
20260904023521 17 161 9.7 14.5 0.00 0.00 0.00 36 1024.7
20260904022522 17 155 9.7 12.9 0.00 0.00 0.00 38 1024.6
20260904021522 17 152 9.7 14.5 0.00 0.00 0.00 36 1024.4
20260904020516 18 167 9.7 12.9 0.00 0.00 0.00 34 1024.3
20260904015517 19 220 9.7 12.9 0.00 0.00 0.00 31 1024.2
20260904014517 20 211 9.7 16.1 0.00 0.00 0.00 31 1024.1
20260904013523 20 221 8.0 12.9 0.00 0.00 0.00 29 1024.1
20260904012517 21 219 9.7 16.1 0.00 0.00 0.00 28 1024.0
20260904011518 22 216 9.7 12.9 0.00 0.00 0.00 28 1024.0
20260904010518 23 222 9.7 14.5 0.00 0.00 0.00 26 1024.0
20260904005517 23 229 12.9 32.2 0.00 0.00 0.00 25 1023.9
20260904004518 23 238 11.3 17.7 0.00 0.00 0.00 24 1023.9
20260904003518 24 248 12.9 20.9 0.00 0.00 0.00 23 1023.9
20260904002518 24 243 12.9 20.9 0.00 0.00 0.00 23 1023.9
20260904001539 24 232 11.3 17.7 0.00 0.00 0.00 24 1023.9
20260904000519 23 221 9.7 17.7 0.00 0.00 0.00 25 1023.9
20260903235536 25 242 11.3 16.1 0.00 0.00 0.00 24 1023.9
20260903234539 25 259 16.1 24.1 0.00 0.00 0.00 23 1023.9
20260903233539 25 249 16.1 29.0 0.00 0.00 0.00 23 1023.8
20260903232536 25 237 11.3 22.5 0.00 0.00 0.00 22 1023.8
20260903231516 25 247 12.9 22.5 0.00 0.00 0.00 22 1023.9
20260903230517 25 260 12.9 30.6 0.00 0.00 0.00 22 1023.9